Weather History for KTVI - October, 2012

Change the Weather History Date:

Wednesday, October 31, 2012

  Actual Average (KVLD) Record (KVLD)
Temperature  
Mean Temperature 58 °F 64 °F  
Max Temperature 71 °F 77 °F 87 °F (1998)
Min Temperature 44 °F 52 °F 33 °F (1996)
Degree Days  
Heating Degree Days 8 4  
Month to date heating degree days 41  
Since 1 July heating degree days 43  
Cooling Degree Days 0 3  
Month to date cooling degree days 156  
Year to date cooling degree days 2381  
Growing Degree Days 8 (Base 50)    
Moisture  
Dew Point 39 °F    
Average Humidity 55    
Maximum Humidity 71    
Minimum Humidity 31    
Precipitation  
Precipitation 0.00 in 0.10 in 1.14 in (1997)
Month to date precipitation 3.20  
Year to date precipitation 44.87  
Sea Level Pressure  
Sea Level Pressure 29.96 in    
Wind  
Wind Speed 5 mph (West)    
Max Wind Speed 14 mph    
Max Gust Speed 22 mph    
Visibility 10 miles    
Events      
T = Trace of Precipitation, MM = Missing Value Source: NWS Daily Summary

Daily Weather History Graph

Daily Weather History Graph

Search for Another Location

Airport or City:

Trip Planner

Search our weather history database for the weather conditions in past years. The results will help you decide how hot, cold, wet, or windy it might be!

Date:

Astronomy

Oct. 31, 2012 Rise Set
Actual Time 7:50 AM EDT 6:47 PM EDT
Civil Twilight 7:25 AM EDT 7:12 PM EDT
Nautical Twilight 6:56 AM EDT 7:41 PM EDT
Astronomical Twilight 6:28 AM EDT 8:09 PM EDT
Moon 8:05 PM EDT (10/31) 9:23 AM EDT (10/31)
Length of Visible Light 11h 47m
Length of Day
10h 57m
Full, 97% of the Moon is Illuminated
Oct 31
Full
Nov 6
Last Quarter
Nov 13
New
Nov 20
First Quarter
Nov 28
Full

Hourly Weather History & Observations

Time (EDT) Temp. Windchill Dew Point Humidity Pressure Visibility Wind Dir Wind Speed Gust Speed Precip Events Conditions
12:15 AM 46.4 °F 44.3 °F 33.8 °F 62% 29.95 in 10.0 mi WSW 4.6 mph - N/A   Clear
12:35 AM 46.4 °F 44.3 °F 33.8 °F 62% 29.95 in 10.0 mi WSW 4.6 mph - N/A   Clear
12:55 AM 44.6 °F 42.2 °F 35.6 °F 71% 29.95 in 10.0 mi WSW 4.6 mph - N/A   Clear
1:15 AM 44.6 °F 42.2 °F 35.6 °F 71% 29.95 in 10.0 mi WSW 4.6 mph - N/A   Clear
1:35 AM 46.4 °F 45.2 °F 33.8 °F 62% 29.95 in 10.0 mi West 3.5 mph - N/A   Clear
1:55 AM 46.4 °F 44.3 °F 33.8 °F 62% 29.95 in 10.0 mi West 4.6 mph - N/A   Clear
2:15 AM 46.4 °F 44.3 °F 33.8 °F 62% 29.96 in 10.0 mi West 4.6 mph - N/A   Clear
2:35 AM 46.4 °F 45.2 °F 33.8 °F 62% 29.96 in 10.0 mi West 3.5 mph - N/A   Clear
3:15 AM 46.4 °F 45.2 °F 33.8 °F 62% 29.96 in 10.0 mi West 3.5 mph - N/A   Clear
3:35 AM 46.4 °F 44.3 °F 33.8 °F 62% 29.96 in 10.0 mi West 4.6 mph - N/A   Clear
3:55 AM 46.4 °F 45.2 °F 35.6 °F 66% 29.95 in 10.0 mi WNW 3.5 mph - N/A   Clear
4:15 AM 46.4 °F 44.3 °F 35.6 °F 66% 29.96 in 10.0 mi WNW 4.6 mph - N/A   Clear
4:35 AM 46.4 °F 45.2 °F 35.6 °F 66% 29.95 in 10.0 mi WNW 3.5 mph - N/A   Clear
4:55 AM 46.4 °F 44.3 °F 35.6 °F 66% 29.95 in 10.0 mi WNW 4.6 mph - N/A   Clear
5:15 AM 46.4 °F 44.3 °F 35.6 °F 66% 29.95 in 10.0 mi WNW 4.6 mph - N/A   Clear
5:35 AM 46.4 °F 45.2 °F 35.6 °F 66% 29.96 in 10.0 mi West 3.5 mph - N/A   Clear
5:55 AM 46.4 °F 44.3 °F 35.6 °F 66% 29.97 in 10.0 mi West 4.6 mph - N/A   Clear
6:15 AM 46.4 °F 44.3 °F 35.6 °F 66% 29.97 in 10.0 mi West 4.6 mph - N/A   Clear
6:35 AM 44.6 °F 43.1 °F 35.6 °F 71% 29.97 in 10.0 mi West 3.5 mph - N/A   Clear
6:55 AM 46.4 °F 44.3 °F 35.6 °F 66% 29.97 in 10.0 mi West 4.6 mph - N/A   Clear
7:15 AM 44.6 °F 42.2 °F 35.6 °F 71% 29.97 in 10.0 mi WSW 4.6 mph - N/A   Clear
7:35 AM 44.6 °F 43.1 °F 35.6 °F 71% 29.97 in 10.0 mi West 3.5 mph - N/A   Clear
7:55 AM 44.6 °F 43.1 °F 35.6 °F 71% 29.98 in 10.0 mi West 3.5 mph - N/A   Clear
8:15 AM 44.6 °F 42.2 °F 35.6 °F 71% 29.99 in 10.0 mi West 4.6 mph - N/A   Clear
8:35 AM 46.4 °F 44.3 °F 35.6 °F 66% 29.99 in 10.0 mi WSW 4.6 mph - N/A   Clear
8:55 AM 48.2 °F - 37.4 °F 66% 30.01 in 10.0 mi West 5.8 mph - N/A   Clear
9:15 AM 50.0 °F - 37.4 °F 62% 30.01 in 10.0 mi West 4.6 mph - N/A   Clear
9:35 AM 51.8 °F - 37.4 °F 58% 30.02 in 10.0 mi West 5.8 mph - N/A   Clear
9:55 AM 53.6 °F - 37.4 °F 54% 30.02 in 10.0 mi West 6.9 mph - N/A   Clear
10:15 AM 55.4 °F - 37.4 °F 51% 30.02 in 10.0 mi WSW 3.5 mph - N/A   Clear
10:35 AM 57.2 °F - 37.4 °F 48% 30.02 in 10.0 mi West 4.6 mph - N/A   Clear
10:55 AM 59.0 °F - 35.6 °F 42% 30.01 in 10.0 mi WNW 6.9 mph - N/A   Clear
11:15 AM 60.8 °F - 37.4 °F 42% 30.02 in 10.0 mi West 8.1 mph - N/A   Clear
11:55 AM 64.4 °F - 35.6 °F 34% 30.01 in 10.0 mi West 10.4 mph 16.1 mph N/A   Clear
12:15 PM 64.4 °F - 35.6 °F 34% 30.01 in 10.0 mi West 11.5 mph 16.1 mph N/A   Clear
12:35 PM 64.4 °F - 37.4 °F 37% 30.00 in 10.0 mi West 10.4 mph 16.1 mph N/A   Clear
12:55 PM 66.2 °F - 37.4 °F 35% 29.99 in 10.0 mi WNW 12.7 mph 18.4 mph N/A   Clear
1:15 PM 68.0 °F - 37.4 °F 33% 29.98 in 10.0 mi West 9.2 mph - N/A   Clear
1:55 PM 69.8 °F - 37.4 °F 31% 29.96 in 10.0 mi West 11.5 mph 20.7 mph N/A   Clear
2:15 PM 69.8 °F - 39.2 °F 33% 29.95 in 10.0 mi West 8.1 mph 21.9 mph N/A   Clear
2:55 PM 71.6 °F - 39.2 °F 31% 29.93 in 10.0 mi West 9.2 mph 19.6 mph N/A   Clear
3:15 PM 69.8 °F - 39.2 °F 33% 29.93 in 10.0 mi West 12.7 mph 19.6 mph N/A   Clear
3:35 PM 71.6 °F - 39.2 °F 31% 29.92 in 10.0 mi WNW 13.8 mph 20.7 mph N/A   Clear
4:15 PM 71.6 °F - 41.0 °F 33% 29.92 in 10.0 mi West 10.4 mph 19.6 mph N/A   Clear
4:35 PM 71.6 °F - 41.0 °F 33% 29.92 in 10.0 mi West 11.5 mph 18.4 mph N/A   Clear
4:55 PM 71.6 °F - 41.0 °F 33% 29.92 in 10.0 mi West 10.4 mph 19.6 mph N/A   Clear
5:15 PM 69.8 °F - 41.0 °F 35% 29.91 in 10.0 mi West 11.5 mph 19.6 mph N/A   Clear
5:35 PM 69.8 °F - 42.8 °F 38% 29.91 in 10.0 mi West 6.9 mph - N/A   Clear
5:55 PM 69.8 °F - 41.0 °F 35% 29.91 in 10.0 mi West 8.1 mph 20.7 mph N/A   Clear
6:15 PM 68.0 °F - 41.0 °F 37% 29.91 in 10.0 mi West 8.1 mph - N/A   Clear
6:35 PM 66.2 °F - 42.8 °F 43% 29.92 in 10.0 mi West 3.5 mph - N/A   Clear
6:55 PM 64.4 °F - 42.8 °F 45% 29.92 in 10.0 mi WSW 3.5 mph - N/A   Clear
7:15 PM 60.8 °F - 46.4 °F 59% 29.92 in 10.0 mi Calm Calm - N/A   Clear
7:35 PM 59.0 °F - 46.4 °F 63% 29.92 in 10.0 mi Calm Calm - N/A   Scattered Clouds
7:55 PM 59.0 °F - 46.4 °F 63% 29.93 in 10.0 mi WSW 3.5 mph - N/A   Scattered Clouds
8:15 PM 57.2 °F - 46.4 °F 67% 29.94 in 10.0 mi WSW 3.5 mph - N/A   Clear
8:35 PM 59.0 °F - 44.6 °F 59% 29.94 in 10.0 mi Calm Calm - N/A   Clear
8:55 PM 57.2 °F - 46.4 °F 67% 29.94 in 10.0 mi WSW 3.5 mph - N/A   Clear
9:15 PM 57.2 °F - 44.6 °F 63% 29.94 in 10.0 mi WSW 5.8 mph - N/A   Clear
9:35 PM 59.0 °F - 44.6 °F 59% 29.95 in 10.0 mi WSW 6.9 mph - N/A   Clear
9:55 PM 60.8 °F - 44.6 °F 55% 29.95 in 10.0 mi WSW 6.9 mph - N/A   Clear
10:15 PM 60.8 °F - 44.6 °F 55% 29.96 in 10.0 mi WSW 5.8 mph - N/A   Clear
10:35 PM 60.8 °F - 46.4 °F 59% 29.96 in 10.0 mi WSW 5.8 mph - N/A   Clear
10:55 PM 60.8 °F - 46.4 °F 59% 29.96 in 10.0 mi WSW 8.1 mph - N/A   Clear
11:15 PM 59.0 °F - 46.4 °F 63% 29.96 in 10.0 mi WSW 6.9 mph - N/A   Clear
11:35 PM 59.0 °F - 46.4 °F 63% 29.96 in 10.0 mi WSW 5.8 mph - N/A   Clear
11:55 PM 59.0 °F - 46.4 °F 63% 29.95 in 10.0 mi WSW 5.8 mph - N/A   Clear